Regional Weather Roundup
Issued by NWS

Home | Current Version | Previous Version | Graphics & Text | Print | Product List | Glossary On
Versions: 1 2 3 4 5 6 7 8 9 10 11 12 13 14 15 16 17 18 19 20 21 22 23 24 25 26 27
000
ASUS45 KSLC 201310
RWRUT

UTAH REGIONAL WEATHER ROUNDUP
NATIONAL WEATHER SERVICE SALT LAKE CITY UT
700 AM MDT SUN APR 20 2014

UTZ001>011-023>025-201400-

NORTHERN UTAH

CITY           SKY/WX    TMP DP  RH WIND       PRES   REMARKS
HILL AFB       PTCLDY    51  33  50 N5        30.09R
LOGAN          CLEAR     45  36  70 S7        30.09R
OGDEN          PTCLDY    50  33  52 E5        30.07R
PROVO AIRPORT  CLOUDY    50  36  57 CALM      30.09R
SALT LAKE CITY MOCLDY    53  38  56 NE3       30.06R
VERNAL         PTCLDY    40  33  76 W3        30.12R
WENDOVER       MOCLDY    55  23  28 SW6       30.10R
HEBER CITY     MOCLDY    36  32  87 SE3       30.13S
WEST JORDAN    CLEAR     48  41  76 N3        30.08R

$$

UTZ012>022-026-027-201400-

SOUTHERN UTAH

CITY           SKY/WX    TMP DP  RH WIND       PRES   REMARKS
BRYCE CANYON   PTCLDY    30  28  92 W5        30.23R WCI  25
CEDAR CITY     CLOUDY    45  33  63 CALM      30.14R
MILFORD        LGT RAIN  53  35  50 SW13      30.10R
MOAB/CYNLANDS  MOCLDY    45  38  76 CALM      30.08R
PRICE          MOCLDY    45  34  65 CALM      30.13R
ST GEORGE      PTSUNNY   57  36  44 SE7       30.07R
KANAB            N/A     37  30  75 NE5       30.19R WCI  34

$$

REGIONAL REPORTS     COLORADO/ARIZONA

CITY           SKY/WX    TMP DP  RH WIND       PRES   REMARKS
CRAIG, CO      MOCLDY    34  32  92 CALM      30.16R
GRAND JUNCTION CLEAR     41  38  89 E5        30.11R
RIFLE          PTCLDY    38  34  85 CALM      30.16R
MONTROSE       CLEAR     41  36  82 SE6       30.16R
CORTEZ         CLEAR     36  33  89 E8        30.14R WCI  30
PAGE, AZ       CLEAR     54  35  48 CALM      30.10R
GRAND CANYON   CLEAR     29  28  96 CALM      30.22R
KINGMAN        CLEAR     55  36  48 SE6       30.08R
FLAGSTAFF      CLEAR     33  29  85 CALM      30.22R

$$

REGIONAL REPORTS    NEVADA/IDAHO/WYOMING

CITY           SKY/WX    TMP DP  RH WIND       PRES   REMARKS
LAS VEGAS, NV  PTCLDY    66  36  32 SW9       29.96R
ELY            MOCLDY    37  31  78 S7        30.18R WCI  32
ELKO           PTCLDY    36  24  62 W3        30.19R
POCATELLO, ID  CLEAR     46  26  45 SW21      30.14R
BURLEY         CLEAR     43  30  60 SW21      30.16R
EVANSTON, WY   PTCLDY    41  30  65 S7        30.15R
ROCK SPRINGS   PTCLDY    40  28  62 CALM      30.13R

$$



USA.gov is the U.S. government's official web portal to all federal, state and local government web resources and services.